Flag for U.S.A. Weather past 2 weeks in Sandpoint, Idaho, U.S.A.

30 °F


Feels Like: 22 °F
Forecast: 12 / 31 °F
Wind: 9 mph from Northeast

Location: Sandpoint Airport

Current Time: Nov 26, 2015 at 11:59:49 AM

Latest Report: Nov 26, 2015 at 11:35 AM

Visibility: 10 mi

Pressure: 30.53 "Hg (28.19 "Hg at 636m altitude)

Humidity: 64%

Dew point: 19 °F

Location of SandpointLocation

Historic Weather in Sandpoint — Graph


Sandpoint temperature yesterday

Maximum temperature yesterday: 34 °F (at 12:15 PM)
Minimum temperature yesterday: 18 °F (at 11:35 PM)
Average temperature yesterday: 29 °F

Past Weeks' High & Low Weather Summary

High52 °F (Nov 13, 3:55 PM)100% (Nov 11, 10:15 AM)30.54 "Hg (Nov 11, 10:15 AM)
Low14 °F (Nov 26, 5:15 AM)33% (Nov 18, 12:55 PM)29.23 "Hg (Nov 17, 6:55 PM)
Average34 °F82%30.03 "Hg
* Reported Nov 11 10:15 AM — Nov 26 10:55 AM, Sandpoint, Weather by CustomWeather, © 2015

Note: Actual official high and low records may vary slightly from our data, if they occured in-between our weather recording intervals... More about our weather records


Sandpoint weather history for previous 24 hours

Time TempWeatherWind HumidityBarometerVisibility
10:55 AM
Thu, Nov 26
30 °FSunny.10 mph64%30.54 "Hg10 mi
10:35 AM28 °FSunny.13 mph69%30.54 "Hg10 mi
10:15 AM28 °FSunny.10 mph69%30.54 "Hg10 mi
9:55 AM27 °FSunny.13 mph74%30.54 "Hg10 mi
9:35 AM27 °FSunny.13 mph69%30.54 "Hg10 mi
9:15 AM27 °FSunny.12 mph69%30.53 "Hg10 mi
8:55 AM25 °FSunny.14 mph74%30.53 "Hg10 mi
8:35 AM23 °FSunny.16 mph80%30.51 "Hg10 mi
8:15 AM23 °FSunny.10 mph80%30.51 "Hg10 mi
7:55 AM23 °FSunny.8 mph80%30.51 "Hg10 mi
7:35 AM21 °FSunny.8 mph86%30.50 "Hg10 mi
7:15 AM21 °FSunny.8 mph86%30.49 "Hg10 mi
6:55 AM19 °FClear.6 mph86%30.49 "Hg10 mi
6:35 AM21 °FClear.8 mph86%30.48 "Hg10 mi
6:15 AM21 °FClear.12 mph86%30.47 "Hg10 mi
5:55 AM18 °FClear.8 mph100%30.47 "Hg10 mi
5:35 AM14 °FClear.No wind100%30.47 "Hg10 mi
5:15 AM14 °FClear.No wind100%30.47 "Hg10 mi
4:55 AM16 °FClear.3 mph93%30.46 "Hg10 mi
4:35 AM19 °FClear.No wind79%30.45 "Hg10 mi
4:15 AM19 °FClear.8 mph93%30.45 "Hg10 mi
3:35 AM16 °FClear.No wind93%30.44 "Hg10 mi
3:15 AM18 °FClear.No wind86%30.43 "Hg10 mi
2:55 AM19 °FClear.3 mph79%30.43 "Hg10 mi
2:35 AM21 °FClear.9 mph86%30.42 "Hg10 mi
2:15 AM18 °FClear.No wind86%30.42 "Hg10 mi
1:55 AM19 °FClear.3 mph79%30.42 "Hg10 mi
1:35 AM19 °FClear.No wind79%30.41 "Hg10 mi
1:15 AM21 °FClear.9 mph80%30.41 "Hg10 mi
12:55 AM18 °FClear.3 mph79%30.41 "Hg10 mi
12:35 AM23 °FClear.6 mph80%30.40 "Hg10 mi
12:15 AM21 °FClear.6 mph80%30.39 "Hg10 mi
11:55 PM
Wed, Nov 25
21 °FClear.No wind80%30.39 "Hg10 mi
11:35 PM18 °FClear.No wind86%30.39 "Hg10 mi
11:15 PM19 °FClear.No wind79%30.39 "Hg10 mi
10:35 PM25 °FClear.5 mph63%30.38 "Hg10 mi
9:55 PM27 °FClear.6 mph59%30.37 "Hg10 mi
9:35 PM27 °FClear.6 mph59%30.36 "Hg10 mi
8:55 PM28 °FClear.12 mph59%30.35 "Hg10 mi
8:35 PM28 °FClear.12 mph59%30.33 "Hg10 mi
7:55 PM28 °FClear.14 mph59%30.32 "Hg10 mi
6:55 PM28 °FClear.17 mph55%30.30 "Hg10 mi
6:35 PM28 °FClear.13 mph55%30.29 "Hg10 mi
6:15 PM28 °FClear.14 mph55%30.29 "Hg10 mi
5:55 PM28 °FClear.14 mph55%30.29 "Hg10 mi
5:35 PM28 °FClear.17 mph59%30.28 "Hg10 mi
5:15 PM28 °FClear.15 mph59%30.28 "Hg10 mi
4:35 PM30 °FClear.13 mph47%30.27 "Hg10 mi
4:15 PM30 °FClear.13 mph47%30.26 "Hg10 mi
3:55 PM30 °FSunny.14 mph47%30.25 "Hg10 mi
3:35 PM32 °FSunny.13 mph44%30.25 "Hg10 mi
3:15 PM32 °FSunny.15 mph44%30.24 "Hg10 mi
2:55 PM32 °FSunny.16 mph44%30.24 "Hg10 mi
2:35 PM32 °FSunny.16 mph44%30.24 "Hg10 mi
2:15 PM32 °FSunny.16 mph47%30.23 "Hg10 mi
1:55 PM32 °FSunny.20 mph47%30.23 "Hg10 mi
1:35 PM32 °FSunny.18 mph47%30.23 "Hg10 mi
1:15 PM32 °FSunny.20 mph47%30.23 "Hg10 mi
12:55 PM34 °FSunny.20 mph41%30.23 "Hg10 mi
12:35 PM34 °FSunny.20 mph41%30.23 "Hg10 mi
12:15 PM34 °FSunny.18 mph41%30.24 "Hg10 mi
11:55 AM32 °FSunny.21 mph44%30.24 "Hg10 mi
11:35 AM32 °FSunny.17 mph44%30.24 "Hg10 mi
11:15 AM32 °FSunny.22 mph47%30.25 "Hg10 mi
Weather by CustomWeather, © 2015

See weather overviewHow to use our weather pages